Location: Canyon City
(32.5951°N, 116.5278°W)
Time: 01:49:10
(UTC+00:00)

Cosmos 2151 - Pass Details

Date: 08 September 2024
Orbit: 567 x 587 km, 82.5° (Epoch: 03 October)

Event Time Altitude Azimuth Distance (km) Brightness Sun altitude
Rises 12:39:38 0° 356° (N) 2,769 6.5 -10.4°
Reaches altitude 10° 12:41:50 10° 359° (N) 1,870 5.7 -10.0°
Maximum altitude 12:45:56 68° 82° (E) 613 3.3 -9.1°
Drops below altitude 10° 12:50:01 10° 167° (SSE) 1,864 5.6 -8.3°
Sets 12:52:13 0° 169° (S) 2,761 6.4 -7.8°
